Wind_Speed
5 5 5 5 6 7 8 9 9 9 11 13 15 15 15 16 17 17 18 17 17 17 17 16 17 17 16 16 16 17 17 17 18 18 18 19 19 19 21 22 22 22 22 23
4 4 5 5 6 7 8 8 8 9 10 13 14 14 15 16 17 17 18 18 18 18 17 17 17 16 17 16 17 17 17 16 17 17 18 19 19 19 20 21 22 22 22 23
4 3 5 6 6 7 7 8 8 9 10 12 13 14 15 16 16 17 17 18 18 18 18 18 17 17 17 16 16 16 15 15 15 16 16 17 17 18 19 20 21 22 22 22
3 3 5 6 6 6 7 8 8 9 10 10 11 13 13 14 14 15 15 15 16 16 17 17 16 15 15 16 15 16 15 15 15 15 16 18 17 18 19 20 20 21 21 21
3 3 4 4 4 6 6 6 7 8 10 10 11 13 12 13 13 14 14 13 13 14 14 14 14 14 14 14 14 14 14 14 15 15 16 16 16 17 18 19 19 20 20 20
4 4 4 3 3 4 5 6 6 7 9 9 10 11 12 12 12 12 12 12 12 12 13 12 12 12 13 12 12 13 13 13 14 15 15 16 16 17 17 18 19 20 20 21
4 4 4 4 4 4 5 5 6 6 6 8 9 10 11 10 10 10 11 10 9 10 12 12 11 12 12 12 12 12 12 12 13 14 14 15 16 16 17 17 18 18 19 20
4 4 4 5 4 4 5 5 6 7 7 7 8 9 10 10 9 9 9 8 8 9 9 9 10 11 10 9 10 11 11 12 12 13 14 15 16 16 16 16 16 17 18 19
5 4 4 4 5 5 5 6 6 7 8 8 8 8 8 9 8 9 9 7 8 8 9 9 9 9 9 8 9 11 11 12 13 13 14 14 15 15 15 15 16 16 16 17
5 5 5 4 5 5 6 6 7 7 8 8 8 8 9 9 9 9 9 9 9 9 9 8 8 8 8 8 9 10 11 11 12 13 13 14 14 15 16 15 15 15 16 17
5 5 5 5 5 6 7 7 8 8 9 10 10 9 10 11 11 9 9 9 9 8 8 8 8 7 8 8 9 9 10 10 11 11 12 13 13 14 14 15 16 16 16 17
5 5 6 6 6 7 8 8 9 10 10 11 11 11 11 11 11 9 9 9 9 8 8 8 8 8 9 9 8 9 10 10 10 11 11 12 13 13 14 15 16 16 16 17
7 7 8 7 7 7 8 9 10 10 11 12 12 12 12 11 11 11 10 10 10 10 10 10 9 9 10 9 9 9 10 10 11 11 12 13 14 14 15 16 17 17 17 17
8 8 9 8 8 8 9 10 10 11 12 13 12 12 12 12 11 11 11 11 11 11 11 11 10 10 10 9 10 10 10 11 11 12 13 14 14 14 15 16 17 17 17 17
9 9 10 9 9 9 10 11 11 11 12 13 13 12 13 13 12 12 12 11 12 12 11 11 10 9 9 10 10 11 12 12 13 13 14 14 14 14 15 16 16 17 17 18
10 11 10 10 10 11 11 11 11 12 12 12 12 12 12 12 12 12 11 11 11 11 11 10 10 10 10 11 12 12 12 12 13 14 15 14 14 14 15 16 17 17 17 17
11 12 11 10 10 11 11 11 11 12 12 12 11 12 12 11 11 11 11 11 10 11 11 11 11 10 11 11 12 12 13 13 14 14 14 14 13 14 15 16 16 16 16 16
12 12 13 12 12 11 12 12 11 11 11 11 11 11 11 11 11 11 11 11 11 11 11 11 10 10 11 11 12 12 13 14 14 14 13 13 13 13 14 15 15 16 16 16
13 13 13 12 11 11 12 12 11 10 10 11 11 11 11 11 11 11 11 12 12 10 11 11 11 11 11 12 12 13 13 13 13 13 13 13 13 14 14 14 15 15 15 16
14 14 14 14 13 12 12 12 12 12 12 11 11 11 12 12 11 12 11 11 11 11 11 11 11 11 12 13 13 13 13 13 13 13 13 13 14 14 14 14 14 14 15 16
15 15 14 14 14 14 14 13 13 13 13 12 12 12 12 12 12 12 11 11 11 10 11 12 12 12 12 13 13 13 13 13 13 13 13 13 13 13 13 13 14 14 15 16
16 16 15 15 15 15 15 14 14 14 13 13 13 12 12 12 13 13 12 12 11 12 12 13 13 13 13 13 14 14 14 13 13 13 13 13 13 13 13 13 14 14 15 17
18 17 17 16 16 15 15 16 15 15 15 15 14 13 13 14 13 13 13 13 13 13 13 13 14 14 15 15 15 15 14 13 13 13 13 13 13 14 14 13 14 15 15 17
21 19 19 18 18 17 17 17 17 17 16 15 15 15 15 14 14 14 14 14 14 14 14 14 15 15 15 15 15 15 14 13 12 13 13 13 14 14 14 14 14 15 16 18
22 21 21 20 20 20 19 19 18 18 17 17 17 17 16 16 16 16 16 15 15 14 15 16 16 16 16 15 15 14 14 13 13 13 13 13 14 14 14 14 14 15 16 18
22 22 22 21 21 21 21 21 20 19 19 19 18 17 17 17 17 16 16 15 15 15 15 15 15 15 16 15 15 14 14 13 13 13 13 14 14 13 13 14 14 15 17 18
Wind_Direction
284 268 269 258 251 255 257 253 249 252 250 255 260 263 267 269 266 266 267 268 269 269 266 268 270 272 273 274 275 276 279 279 279 277 279 279 280 279 279 281 282 282 281 281
290 265 258 258 258 261 261 260 257 257 258 260 262 263 267 270 273 270 272 274 272 270 269 270 270 271 275 277 274 276 280 282 281 278 278 281 280 280 281 282 281 281 284 283
308 273 252 249 251 258 262 267 268 268 263 263 267 267 270 270 273 275 275 274 271 266 265 264 268 274 276 278 277 279 280 281 282 280 281 283 284 282 282 282 281 281 283 283
320 289 266 257 262 263 267 273 274 268 266 271 272 275 277 278 280 280 277 274 271 265 265 265 268 275 277 279 280 283 283 282 284 285 287 289 289 288 286 284 282 281 283 284
348 322 295 272 271 277 279 279 276 271 274 275 273 280 286 289 288 285 281 277 276 275 274 268 268 276 280 280 281 285 287 285 285 288 290 294 293 290 287 287 287 286 285 284
344 328 321 305 300 296 289 284 276 279 279 278 283 289 294 294 298 296 289 282 281 282 276 274 274 275 279 282 285 286 289 289 287 291 292 295 298 295 292 290 288 287 286 285
323 318 313 299 296 295 296 292 287 291 295 295 291 293 300 300 302 303 298 291 290 289 278 277 278 279 281 282 283 286 286 291 292 295 295 300 301 299 296 293 291 289 289 288
310 304 299 297 300 300 297 292 296 299 300 298 291 295 302 304 307 307 306 299 295 297 292 285 282 285 281 283 285 289 292 295 299 299 301 302 300 300 299 296 295 294 294 294
307 310 314 307 306 296 297 287 289 298 302 299 297 304 309 313 313 314 315 307 302 300 298 295 288 288 288 290 290 292 297 300 300 300 302 304 302 303 304 304 304 301 299 298
305 313 322 320 304 301 304 296 292 298 303 303 305 311 320 318 317 317 320 317 315 309 308 304 301 298 294 296 297 300 303 305 304 301 303 305 307 309 310 307 309 306 301 301
301 308 319 316 312 309 305 301 300 302 301 303 306 310 314 314 315 317 322 318 321 313 306 307 311 309 305 303 306 306 308 309 306 307 309 311 313 314 313 310 309 309 306 306
296 300 304 309 314 306 301 302 302 302 304 303 302 305 309 311 310 311 315 314 313 314 315 313 314 312 308 305 307 308 312 313 312 312 314 315 316 317 318 316 317 315 314 312
290 300 303 303 304 302 303 304 301 301 302 303 303 305 309 310 309 309 311 313 312 312 313 312 309 309 309 305 306 310 311 313 313 316 320 319 317 318 320 319 319 318 318 316
290 296 301 300 300 299 299 299 300 303 304 304 304 307 308 307 306 304 305 306 307 308 308 308 309 308 307 304 308 309 311 314 315 316 318 320 319 319 322 323 323 322 322 318
288 294 297 295 294 293 295 297 298 302 304 306 307 310 310 303 303 301 301 302 303 303 302 304 307 306 309 307 306 305 305 310 313 313 312 314 316 318 321 323 324 323 323 321
284 291 294 293 293 290 291 297 303 305 304 306 306 305 309 305 301 297 298 298 299 303 305 308 308 305 306 305 306 306 305 306 309 311 312 312 314 314 317 321 323 324 324 324
279 287 290 289 291 292 294 298 303 304 303 306 306 306 307 302 301 300 299 302 301 301 303 306 308 307 307 309 309 308 308 309 311 312 313 313 313 314 317 320 322 325 327 327
280 282 286 286 286 289 295 297 299 301 305 305 304 304 305 304 302 301 301 303 304 303 301 304 307 307 308 310 310 309 309 310 310 312 315 315 315 319 322 323 325 327 329 331
286 289 289 291 289 289 291 293 296 298 301 303 302 304 304 302 300 300 301 303 302 303 302 302 302 304 307 308 309 310 312 314 315 316 316 316 316 318 321 323 328 332 333 334
283 286 287 289 291 291 293 295 294 293 295 300 301 302 305 302 299 300 301 303 300 301 304 304 302 305 306 308 310 312 312 313 315 316 317 319 319 319 321 326 331 335 336 334
279 281 283 285 286 288 291 292 294 291 293 295 298 299 300 297 297 300 301 303 302 302 303 302 302 305 307 310 312 313 313 313 313 314 316 319 321 323 325 328 330 333 337 336
277 279 279 280 283 285 288 290 288 290 292 292 293 295 296 296 295 295 298 300 301 303 305 305 304 305 306 310 314 313 313 312 312 312 313 314 316 320 323 324 327 330 332 336
275 277 278 278 279 284 288 288 287 288 288 290 292 291 294 294 292 294 298 301 299 298 300 303 303 302 304 306 310 311 311 311 312 313 313 312 313 316 320 321 323 328 331 333
273 273 273 273 274 279 284 286 285 285 287 286 287 287 290 291 293 296 298 299 298 297 295 296 298 299 301 303 305 306 304 306 309 310 311 313 314 314 318 319 321 325 327 330
273 272 270 270 271 274 276 279 282 282 282 283 282 282 285 287 288 290 292 293 294 294 292 293 295 296 298 301 301 301 299 299 302 304 308 311 315 314 316 318 319 321 324 328
270 269 269 268 268 272 273 274 276 279 280 280 278 279 282 285 286 287 291 294 296 294 292 293 295 298 298 300 300 297 295 294 296 299 304 309 313 314 316 316 317 320 324 327
Height
5814 5814 5814 5815 5815 5816 5816 5817 5818 5818 5818 5818 5818 5819 5819 5819 5819 5820 5820 5819 5820 5820 5820 5820 5820 5820 5820 5819 5818 5819 5819 5818 5817 5817 5816 5815 5814 5814 5813 5813 5811 5810 5809 5808
5814 5813 5813 5813 5814 5814 5815 5815 5816 5816 5816 5816 5816 5816 5817 5816 5816 5816 5816 5816 5816 5816 5816 5816 5816 5816 5816 5815 5814 5815 5814 5813 5813 5812 5811 5811 5810 5809 5808 5807 5806 5805 5803 5802
5813 5813 5812 5813 5813 5813 5814 5814 5815 5815 5815 5814 5814 5815 5814 5814 5813 5813 5813 5812 5811 5812 5812 5812 5812 5812 5812 5811 5811 5810 5810 5809 5808 5807 5807 5806 5805 5804 5802 5802 5800 5799 5798 5797
5812 5812 5812 5812 5812 5812 5813 5813 5813 5813 5813 5813 5813 5812 5812 5811 5811 5810 5809 5808 5808 5808 5808 5808 5808 5808 5808 5807 5806 5806 5805 5805 5804 5803 5802 5801 5800 5799 5798 5797 5795 5794 5793 5792
5813 5812 5811 5811 5812 5812 5812 5812 5812 5812 5811 5811 5810 5810 5811 5809 5808 5807 5806 5804 5804 5804 5804 5804 5805 5804 5804 5803 5803 5802 5801 5801 5800 5799 5798 5797 5795 5794 5793 5792 5790 5789 5788 5787
5813 5812 5812 5811 5811 5811 5811 5811 5811 5810 5810 5810 5809 5809 5809 5807 5806 5804 5803 5802 5801 5801 5801 5801 5801 5801 5800 5800 5799 5799 5798 5797 5796 5795 5794 5793 5792 5790 5788 5787 5785 5784 5783 5781
5814 5813 5812 5811 5811 5811 5811 5811 5810 5809 5809 5808 5808 5807 5807 5805 5804 5802 5800 5799 5799 5799 5798 5798 5798 5797 5797 5796 5796 5795 5795 5794 5792 5791 5790 5789 5788 5786 5784 5782 5780 5779 5778 5776
5814 5813 5813 5811 5811 5810 5810 5810 5810 5809 5808 5808 5807 5805 5805 5803 5802 5800 5799 5798 5797 5797 5796 5795 5795 5794 5793 5793 5793 5792 5791 5790 5789 5787 5786 5786 5784 5782 5780 5778 5776 5774 5773 5771
5813 5813 5812 5811 5810 5810 5810 5809 5809 5809 5807 5806 5805 5804 5803 5802 5801 5799 5798 5797 5796 5795 5794 5793 5792 5791 5791 5790 5790 5789 5788 5787 5785 5784 5783 5782 5780 5778 5775 5774 5772 5770 5768 5766
5813 5812 5812 5810 5810 5809 5809 5809 5808 5807 5806 5805 5804 5803 5802 5801 5800 5798 5797 5796 5795 5794 5792 5791 5790 5789 5789 5788 5787 5786 5785 5783 5782 5781 5780 5778 5776 5774 5772 5770 5768 5765 5763 5761
5812 5812 5811 5810 5809 5809 5809 5808 5807 5806 5805 5804 5802 5804 5801 5800 5798 5797 5796 5794 5793 5792 5791 5790 5788 5787 5786 5786 5785 5784 5782 5781 5779 5778 5777 5775 5773 5771 5769 5766 5764 5762 5759 5757
5811 5811 5810 5809 5809 5808 5807 5807 5806 5805 5804 5802 5801 5804 5799 5798 5796 5795 5794 5793 5792 5790 5789 5788 5787 5786 5785 5784 5783 5781 5780 5778 5777 5776 5774 5772 5770 5768 5765 5763 5760 5758 5755 5753
5811 5810 5809 5808 5809 5808 5806 5805 5804 5803 5802 5800 5799 5801 5797 5796 5795 5793 5792 5791 5790 5788 5787 5786 5785 5784 5782 5781 5780 5778 5777 5775 5774 5773 5771 5769 5767 5765 5762 5760 5757 5755 5752 5749
5810 5809 5809 5808 5807 5806 5805 5804 5802 5801 5799 5798 5797 5796 5795 5794 5792 5791 5790 5789 5787 5786 5785 5784 5782 5781 5780 5778 5777 5776 5774 5773 5771 5770 5768 5766 5764 5762 5759 5757 5754 5751 5749 5746
5808 5807 5806 5805 5805 5804 5803 5802 5801 5799 5797 5796 5795 5793 5793 5791 5790 5789 5787 5786 5785 5784 5782 5781 5780 5779 5777 5776 5775 5773 5772 5770 5768 5767 5765 5763 5761 5759 5757 5754 5751 5749 5746 5743
5806 5805 5804 5804 5803 5802 5801 5799 5798 5797 5795 5793 5792 5791 5789 5788 5787 5786 5785 5784 5783 5781 5780 5779 5777 5776 5775 5774 5772 5771 5769 5767 5766 5764 5762 5760 5758 5756 5754 5751 5749 5746 5743 5740
5804 5803 5802 5802 5801 5800 5798 5797 5796 5794 5792 5791 5790 5789 5787 5786 5784 5783 5782 5781 5780 5779 5778 5776 5775 5774 5772 5770 5769 5767 5766 5764 5763 5761 5759 5757 5755 5753 5751 5749 5746 5744 5741 5738
5801 5800 5799 5798 5799 5797 5798 5795 5793 5792 5790 5788 5787 5786 5784 5783 5782 5781 5780 5779 5777 5776 5775 5774 5773 5771 5770 5768 5766 5765 5763 5762 5760 5758 5756 5754 5752 5750 5748 5746 5743 5741 5738 5736
5797 5797 5796 5795 5795 5794 5794 5792 5790 5789 5788 5786 5785 5783 5782 5781 5780 5778 5777 5776 5775 5774 5773 5771 5770 5769 5767 5766 5764 5763 5761 5759 5757 5755 5753 5751 5750 5748 5746 5744 5741 5738 5736 5733
5793 5793 5793 5792 5791 5791 5791 5789 5787 5787 5785 5784 5782 5781 5780 5778 5777 5777 5775 5773 5772 5771 5770 5769 5768 5766 5765 5763 5761 5760 5758 5756 5754 5752 5751 5749 5747 5745 5743 5741 5739 5736 5734 5731
5790 5789 5789 5788 5787 5787 5787 5785 5785 5785 5784 5781 5779 5778 5777 5775 5775 5774 5772 5771 5770 5769 5768 5766 5765 5763 5762 5760 5759 5757 5755 5753 5752 5750 5748 5747 5745 5743 5741 5739 5737 5735 5732 5729
5785 5785 5785 5784 5784 5785 5782 5781 5781 5781 5779 5777 5776 5775 5774 5772 5772 5770 5769 5768 5767 5766 5765 5764 5762 5761 5759 5757 5756 5754 5752 5751 5749 5747 5746 5744 5743 5741 5739 5737 5735 5733 5730 5728
5780 5781 5780 5781 5781 5779 5778 5777 5776 5776 5775 5774 5773 5772 5771 5769 5769 5767 5766 5765 5764 5763 5762 5761 5759 5758 5756 5754 5753 5751 5750 5748 5746 5745 5744 5742 5740 5739 5737 5735 5733 5731 5728 5726
5774 5774 5774 5774 5775 5774 5773 5772 5772 5771 5771 5770 5769 5768 5767 5766 5765 5764 5763 5762 5761 5760 5759 5757 5756 5754 5753 5751 5750 5748 5747 5745 5744 5743 5741 5740 5738 5736 5734 5732 5730 5728 5726 5723
5768 5768 5768 5768 5769 5768 5768 5768 5767 5767 5766 5765 5764 5764 5763 5762 5761 5761 5760 5759 5757 5756 5755 5754 5752 5751 5750 5748 5746 5745 5744 5743 5741 5740 5738 5737 5735 5733 5731 5730 5728 5726 5723 5720
5762 5762 5762 5763 5763 5763 5763 5762 5762 5761 5761 5760 5760 5759 5759 5758 5757 5756 5755 5754 5753 5752 5751 5750 5749 5747 5746 5744 5743 5742 5740 5739 5738 5737 5735 5734 5732 5730 5729 5727 5725 5723 5720 5717